Location: Dackenheim
(49.5215°N, 8.1854°E)
Time: 07:43:16
(UTC+00:00)

QB50P2 - Visible Passes

Search period start: 11 March 2026 00:00
Search period end: 21 March 2026 00:00
Orbit: 519 x 531 km, 98.1° (Epoch: 10 March)

Date Brightness Start Highest point End Pass type
(mag) Time Alt. Az. Time Alt. Az. Time Alt. Az.
11 Mar ? 04:55:04 10° NNE 04:58:52 80° WNW 05:02:39 10° SSW visible
12 Mar ? 04:43:02 10° NNE 04:46:51 74° ESE 04:50:37 10° S visible
13 Mar ? 04:31:03 10° NNE 04:34:47 53° E 04:38:29 10° S visible
14 Mar ? 04:19:05 10° NNE 04:22:41 38° E 04:26:14 10° SSE visible
15 Mar ? 04:07:11 10° NE 04:10:32 29° E 04:13:50 10° SSE visible
16 Mar ? 03:55:21 10° NE 03:58:19 21° E 04:01:17 10° SE visible
17 Mar ? 03:43:39 10° NE 03:46:06 16° E 03:48:31 10° SE visible
18 Mar ? 03:32:16 10° ENE 03:33:48 12° E 03:35:22 10° ESE visible
19 Mar ? 04:52:26 10° NNE 04:56:15 89° E 05:00:02 10° SSW visible
20 Mar ? 04:40:16 10° NNE 04:44:03 65° ESE 04:47:48 10° S visible
